Location: Clermont
(50.2608°N, 4.3172°E)
Time: 21:22:25
(UTC+00:00)

Lacrosse 5 - Pass Details

Date: 13 August 2020
Orbit: 716 x 722 km, 57.0° (Epoch: 21 September)

Event Time Altitude Azimuth Distance (km) Brightness Sun altitude
Rises 22:18:15 0° 295° (WNW) 3,134 5.9 -22.5°
Reaches altitude 10° 22:21:31 10° 274° (W) 2,209 4.7 -22.7°
Maximum altitude 22:24:28 16° 238° (WSW) 1,846 3.9 -22.9°
Enters shadow 22:24:46 16° 234° (SW) 1,850 3.8 -22.9°
